Location: Pedholt
(56.0260°N, 10.2097°E)
Time: 06:22:52
(UTC+00:00)

Cosmos 1437 Rocket - Pass Details

Date: 14 July 2020
Orbit: 506 x 562 km, 81.2° (Epoch: 14 August)

Event Time Altitude Azimuth Distance (km) Brightness Sun altitude
Rises 00:27:35 0° 347° (NNW) 2,754 7.6 -11.2°
Reaches altitude 10° 00:29:49 10° 350° (N) 1,847 6.6 -11.1°
Maximum altitude 00:33:51 62° 72° (ENE) 621 3.2 -11.0°
Drops below altitude 10° 00:37:48 10° 154° (SSE) 1,801 5.0 -10.8°
Enters shadow 00:38:10 - 155° (SSE) 1,951 5.2 -10.8°
